sat.trackr.live / text

‹ back to catalog

UNKNOWN

NORAD 87624

UNKNOWN UNKNOWN UNKNOWN

§ Identity

Operator
Country
Launch date
Launch site
Launch vehicle
Mass (kg)
RCS (m²)

External: N2YO · Heavens-Above

§ Orbital elements

Epoch: 2026-05-23T14:22:03.785088Z

Period
97.83 min
Inclination
98.6967°
Eccentricity
0.0096320
Mean motion
14.71946516 rev/d
Perigee alt
587.1 km
Apogee alt
722.6 km
Semi-major
7,033.0 km
B*
4.9900e-4
RAAN
96.7765°
Arg perigee
101.2776°
Mean anomaly
259.9272°
Rev number
60,407

§ Raw data

UNKNOWN1 87624U          26143.59865492  .00003304  00000+0  49900-3 0  99952 87624  98.6967  96.7765 0096320 101.2776 259.9272 14.71946516604075

JSON: /api/v1/satellites/87624 · /tle

For live sub-satellite position, see the globe view (requires WebGL).

§ Visibility from observer

Set your observer location to see the next 7 days of passes ≥ 10°. The values pass through the URL so the page stays shareable.

No JS? Fill the form by hand. The geolocation button needs JavaScript.